Weather History for Springfield, CO

Change the Weather History Date:

Wednesday, February 13, 2013

  Actual Average Record
Temperature  
Mean Temperature 35 °F -  
Max Temperature 54 °F 50 °F 78 °F (2011)
Min Temperature 15 °F 20 °F 3 °F (2004)
Degree Days  
Heating Degree Days 30 30  
Month to date heating degree days 353 403  
Since 1 July heating degree days 3283 3579  
Cooling Degree Days 0 0  
Month to date cooling degree days 0 0  
Year to date cooling degree days 0 0  
Moisture  
Dew Point 9 °F    
Average Humidity 42    
Maximum Humidity 67    
Minimum Humidity 17    
Precipitation  
Precipitation 0.00 in 0.02 in 0.01 in (2001)
Month to date precipitation 0.04 0.24  
Year to date precipitation 0.06 0.61  
Sea Level Pressure  
Sea Level Pressure 29.98 in    
Wind  
Wind Speed 7 mph (NW)    
Max Wind Speed 15 mph    
Max Gust Speed 20 mph    
T = Trace of Precipitation, MM = Missing Value Source: NWS Daily Summary

Daily Weather History Graph

Daily Weather History Graph

Search for Another Location

Airport:

Trip Planner

Search our weather history database for the weather conditions in past years. The results will help you decide how hot, cold, wet, or windy it might be!

Date:

Astronomy

Feb. 13, 2013 Rise Set
Actual Time 6:41 AM MST 5:28 PM MST
Civil Twilight 6:14 AM MST 5:55 PM MST
Nautical Twilight 5:44 AM MST 6:25 PM MST
Astronomical Twilight 5:13 AM MST 6:56 PM MST
Moon 8:17 AM MST (2/13) 9:26 PM MST (2/13)
Length of Visible Light 11h 40m
Length of Day
10h 47m
Waxing Crescent, 14% of the Moon is Illuminated
Feb 13
Waxing Crescent
Feb 17
First Quarter
Feb 25
Full
Mar 4
Last Quarter
Mar 11
New

Hourly Weather History & Observations

Time (MST) Temp. Windchill Dew Point Humidity Pressure Visibility Wind Dir Wind Speed Gust Speed Precip Events Conditions
12:56 AM 19.0 °F 9.0 °F 7.0 °F 59% 30.03 in - NW 8.1 mph - N/A   Unknown
1:56 AM 19.9 °F 8.6 °F 7.0 °F 57% 30.01 in - NW 10.4 mph - N/A   Unknown
2:56 AM 18.0 °F 4.8 °F 7.0 °F 62% 30.02 in - NW 12.7 mph - N/A   Unknown
3:56 AM 19.0 °F 6.8 °F 8.1 °F 62% 30.01 in - NW 11.5 mph - N/A   Unknown
4:56 AM 19.0 °F 6.8 °F 7.0 °F 59% 30.02 in - NW 11.5 mph - N/A   Unknown
5:56 AM 16.0 °F 10.4 °F 6.1 °F 65% 30.05 in - West 3.5 mph - N/A   Unknown
6:56 AM 17.1 °F 11.7 °F 6.1 °F 62% 30.06 in - NW 3.5 mph - N/A   Unknown
7:56 AM 28.9 °F 21.1 °F 10.0 °F 45% 30.04 in - NW 8.1 mph - N/A   Unknown
8:56 AM 37.0 °F 30.4 °F 10.9 °F 34% 30.03 in - NW 9.2 mph - N/A   Unknown
9:56 AM 42.1 °F 40.2 °F 6.1 °F 23% 30.01 in - WNW 3.5 mph - N/A   Unknown
10:56 AM 46.0 °F 42.5 °F 8.1 °F 21% 29.98 in - WNW 6.9 mph - N/A   Unknown
11:56 AM 50.0 °F - 8.1 °F 18% 29.95 in - NNW 6.9 mph - N/A   Unknown
12:56 PM 52.0 °F - 9.0 °F 18% 29.91 in - North 11.5 mph 16.1 mph N/A   Unknown
1:56 PM 53.1 °F - 10.9 °F 19% 29.90 in - North 5.8 mph - N/A   Unknown
2:56 PM 52.0 °F - 10.9 °F 19% 29.90 in - NW 5.8 mph - N/A   Unknown
3:56 PM 53.1 °F - 10.9 °F 19% 29.89 in - Variable 3.5 mph - N/A   Unknown
4:56 PM 48.9 °F - 12.0 °F 23% 29.92 in - ENE 4.6 mph - N/A   Unknown
5:56 PM 39.9 °F 36.7 °F 10.9 °F 31% 29.96 in - SE 4.6 mph - N/A   Unknown
6:56 PM 34.0 °F - 10.0 °F 37% 30.00 in - Calm Calm - N/A   Unknown
7:56 PM 26.1 °F - 7.0 °F 44% 30.00 in - Calm Calm - N/A   Unknown
8:56 PM 28.0 °F 21.7 °F 8.1 °F 43% 29.97 in - WSW 5.8 mph - N/A   Unknown
9:56 PM 26.1 °F 20.5 °F 9.0 °F 49% 29.99 in - WNW 4.6 mph - N/A   Unknown
10:56 PM 25.0 °F 17.1 °F 9.0 °F 51% 29.98 in - NW 6.9 mph - N/A   Unknown
11:56 PM 23.0 °F 13.9 °F 10.0 °F 58% 30.00 in - NW 8.1 mph - N/A   Unknown